Date_and_time,latitude,longitude,wind_speed,RelWindDirFrom,WindDirFrom,air_pressure,air_temperature,relative_humidity,Temp,platform_speed_wrt_ground,air_pressure_at_mean_sea_level,platform_orientation
2019-08-13 00:00,50.630445,-96.980785,14.9,18.0,30,986.88,20.7,55,21.24,0.0,1012.74,165.5
2019-08-13 00:10,50.6304383333333,-96.98077,14.2,16.8,31,986.97,20.7,55,21.26,0.0,1012.83,165.5
2019-08-13 00:20,50.6304433333333,-96.9807716666667,15.3,17.6,32,986.87,20.8,54,21.26,0.0,1012.73,165.5
2019-08-13 00:30,50.6304433333333,-96.98081,15.6,18.9,34,986.81,20.8,54,21.24,0.0,1012.66,165.5
2019-08-13 00:40,50.6304416666667,-96.9807666666667,14.6,17.6,40,986.85,20.9,55,21.24,0.0,1012.70,165.5
2019-08-13 00:50,50.6304483333333,-96.9807666666667,15.0,17.4,39,986.82,20.9,54,21.23,0.0,1012.67,165.5
2019-08-13 01:00,50.6304683333333,-96.9807816666667,15.5,17.7,36,986.82,20.9,54,21.22,0.0,1012.67,48.3
2019-08-13 01:10,50.6304616666667,-96.980775,15.9,18.2,35,986.81,20.9,56,21.22,0.0,1012.66,48.3
2019-08-13 01:20,50.6304616666667,-96.9807733333333,16.1,19.0,28,986.81,20.9,56,21.22,0.0,1012.65,48.3
2019-08-13 01:30,50.6304583333333,-96.9807733333333,16.0,19.2,26,986.86,20.8,57,21.22,0.0,1012.71,48.3
2019-08-13 01:40,50.6304583333333,-96.980775,14.1,16.5,32,987.11,20.8,56,21.20,0.0,1012.97,48.3
2019-08-13 01:50,50.63046,-96.980775,14.2,16.1,30,987.22,20.9,55,21.20,0.0,1013.07,48.3
2019-08-13 02:00,50.63046,-96.980775,13.8,16.0,30,987.27,20.9,54,21.19,0.0,1013.12,60.8
2019-08-13 02:10,50.6304583333333,-96.980775,14.0,15.8,24,987.32,20.9,56,21.18,0.0,1013.17,60.8
2019-08-13 02:20,50.63046,-96.980775,14.8,16.6,20,987.41,20.7,57,21.18,0.0,1013.27,60.8
2019-08-13 02:30,50.63046,-96.980775,14.8,17.7,14,987.50,20.6,61,21.18,0.0,1013.37,60.8
2019-08-13 02:40,50.63046,-96.980775,14.9,18.0,8,987.60,20.5,62,21.18,0.0,1013.47,60.8
2019-08-13 02:50,50.630455,-96.9807866666667,14.2,16.9,6,987.73,20.4,65,21.18,0.0,1013.61,60.8
2019-08-13 03:00,50.6304683333333,-96.9807566666667,13.4,16.7,6,987.83,20.3,62,21.18,0.0,1013.71,24.3
2019-08-13 03:10,50.630455,-96.9807666666667,11.2,13.5,11,987.88,20.5,62,21.16,0.0,1013.76,24.3
2019-08-13 03:20,50.6304566666667,-96.9807683333333,12.0,14.1,5,987.88,20.4,62,21.16,0.0,1013.76,24.3
2019-08-13 03:30,50.6304583333333,-96.9807716666667,13.2,15.2,0,987.80,20.1,64,21.15,0.0,1013.70,24.3
2019-08-13 03:40,50.6304583333333,-96.9807716666667,12.1,15.2,360,987.82,20.1,66,21.15,0.0,1013.72,24.3
2019-08-13 03:50,50.63046,-96.9807733333333,11.2,14.2,2,987.93,20.2,63,21.14,0.0,1013.82,24.3
2019-08-13 04:00,50.6304616666667,-96.9807733333333,7.2,12.3,339,988.01,19.8,65,21.12,0.0,1013.93,119.2
2019-08-13 04:10,50.6304633333333,-96.9807733333333,6.6,10.2,334,988.04,18.8,67,21.11,0.0,1014.00,119.2
2019-08-13 04:20,50.6304633333333,-96.980775,8.2,11.5,343,987.99,18.6,69,21.08,0.0,1013.97,119.2
2019-08-13 04:30,50.6304633333333,-96.980775,7.5,10.7,347,988.02,18.6,70,21.05,0.0,1014.00,119.2
2019-08-13 04:40,50.6304633333333,-96.980775,9.0,11.7,353,987.98,19.1,69,21.04,0.0,1013.95,119.2
2019-08-13 04:50,50.630455,-96.9807733333333,12.0,15.0,4,987.86,19.7,66,21.04,0.0,1013.80,119.2
2019-08-13 05:00,50.6304516666667,-96.9807766666667,10.4,12.8,357,987.88,19.2,74,21.03,0.0,1013.84,142.0
2019-08-13 05:10,50.6304533333333,-96.9807783333333,9.1,11.8,356,987.96,19.1,75,21.02,0.0,1013.92,142.0
2019-08-13 05:20,50.6304533333333,-96.9807783333333,8.3,10.9,352,988.02,19.0,76,21.02,0.0,1014.00,142.0
2019-08-13 05:30,50.6304833333333,-96.9807983333333,7.2,10.5,342,988.08,18.7,75,21.04,0.0,1014.08,142.0
2019-08-13 05:40,50.6304616666667,-96.9807833333333,7.3,10.1,350,988.08,18.4,76,21.05,0.0,1014.09,142.0
2019-08-13 05:50,50.63046,-96.980785,5.1,6.9,337,988.10,18.0,77,21.05,0.0,1014.14,142.0
2019-08-13 06:00,50.630445,-96.9807766666667,5.4,7.6,343,988.08,17.8,78,21.05,0.0,1014.18,360.0
2019-08-13 06:10,50.6304516666667,-96.98078,6.2,8.5,341,988.03,18.3,77,21.05,0.0,1014.11,360.0
2019-08-13 06:20,50.6304516666667,-96.9807816666667,7.0,12.6,37,987.98,19.1,67,21.04,0.0,1014.03,360.0
2019-08-13 06:30,50.6304516666667,-96.980785,12.4,15.2,60,987.91,20.6,56,21.03,0.0,1013.86,360.0
2019-08-13 06:40,50.6304516666667,-96.9807866666667,13.0,16.0,63,987.86,20.8,55,21.02,0.0,1013.78,360.0
2019-08-13 06:50,50.630455,-96.9807883333333,13.8,15.9,65,987.85,20.7,55,21.01,0.0,1013.80,360.0
2019-08-13 07:00,50.6304466666667,-96.98078,13.7,16.2,66,987.87,20.7,56,21.02,0.0,1013.82,183.2
2019-08-13 07:10,50.6304533333333,-96.9807883333333,14.6,16.6,66,987.86,20.8,52,21.01,0.0,1013.81,183.2
2019-08-13 07:20,50.63045,-96.9807866666667,13.1,15.6,69,987.95,20.7,53,20.97,0.0,1013.92,183.2
2019-08-13 07:30,50.6304483333333,-96.980785,13.4,15.3,68,987.95,20.6,53,20.96,0.0,1013.94,183.2
2019-08-13 07:40,50.630445,-96.98078,14.2,15.8,70,987.87,20.6,54,20.97,0.0,1013.87,183.2
2019-08-13 07:50,50.6304416666667,-96.980775,12.8,15.5,75,987.91,20.5,55,20.96,0.0,1013.93,183.2
2019-08-13 08:00,50.6304466666667,-96.9807733333333,11.8,13.1,72,987.96,20.3,57,20.94,0.0,1013.97,360.0
2019-08-13 08:10,50.6304516666667,-96.9807866666667,8.9,11.6,85,988.02,20.4,59,20.92,0.0,1013.98,360.0
2019-08-13 08:20,50.6304483333333,-96.980795,12.5,14.8,67,988.00,20.6,60,20.91,0.0,1013.89,360.0
2019-08-13 08:30,50.6304483333333,-96.9807933333333,13.3,15.5,67,988.09,20.5,59,20.90,0.0,1013.98,360.0
2019-08-13 08:40,50.6304466666667,-96.9807883333333,12.4,14.4,71,988.15,20.3,58,20.89,0.0,1014.05,360.0
2019-08-13 08:50,50.6304466666667,-96.9807883333333,12.6,14.1,71,988.13,20.3,56,20.89,0.0,1014.03,360.0
2019-08-13 09:00,50.6304466666667,-96.9807866666667,13.5,15.0,71,988.16,20.2,59,20.89,0.0,1014.06,293.6
2019-08-13 09:10,50.6304416666667,-96.9807416666667,13.4,15.3,67,988.18,20.0,58,20.86,0.0,1014.10,293.6
2019-08-13 09:20,50.6304566666667,-96.9807833333333,13.0,15.3,67,988.20,20.0,59,20.83,0.0,1014.12,293.6
2019-08-13 09:30,50.630465,-96.9807766666667,13.2,15.1,65,988.23,20.0,59,20.82,0.0,1014.16,293.6
2019-08-13 09:40,50.6304616666667,-96.9807866666667,12.0,13.9,59,988.34,19.8,60,20.82,0.0,1014.29,293.6
2019-08-13 09:50,50.6304516666667,-96.9807766666667,9.9,11.7,70,988.45,19.8,57,20.84,0.0,1014.40,293.6
2019-08-13 10:00,50.6304566666667,-96.980785,8.5,11.0,78,988.52,20.0,58,20.84,0.0,1014.46,38.0
2019-08-13 10:10,50.6304533333333,-96.98078,10.6,13.1,102,988.59,20.0,59,20.84,0.0,1014.53,38.0
2019-08-13 10:20,50.630455,-96.98078,10.1,12.2,103,988.68,20.0,58,20.85,0.0,1014.63,38.0
2019-08-13 10:30,50.630455,-96.98078,11.9,15.0,79,988.69,19.9,55,20.85,0.0,1014.65,38.0
2019-08-13 10:40,50.6304416666667,-96.980715,14.0,16.9,71,988.71,19.7,55,20.85,0.0,1014.68,38.0
2019-08-13 10:50,50.6304416666667,-96.98077,14.3,17.3,74,988.75,19.6,54,20.84,0.0,1014.72,38.0
2019-08-13 11:00,50.6304433333333,-96.9807816666667,14.9,17.3,72,988.81,19.7,54,20.83,0.0,1014.79,234.7
2019-08-13 11:10,50.630445,-96.9807833333333,15.8,18.6,71,988.86,19.5,54,20.80,0.0,1014.85,234.7
2019-08-13 11:20,50.630445,-96.9807833333333,16.5,19.9,70,988.88,19.4,52,20.78,0.0,1014.87,234.7
2019-08-13 11:30,50.6304483333333,-96.980785,16.5,18.8,72,988.99,19.3,52,20.78,0.0,1015.00,234.7
2019-08-13 11:40,50.6304483333333,-96.980785,15.2,17.3,71,989.13,19.2,54,20.78,0.0,1015.15,234.7
2019-08-13 11:50,50.6304466666667,-96.9807833333333,15.0,16.9,72,989.23,19.2,53,20.76,0.0,1015.24,234.7
2019-08-13 12:00,50.6304466666667,-96.9807816666667,14.4,17.6,72,989.35,19.1,52,20.75,0.0,1015.37,90.0
2019-08-13 12:10,50.6304466666667,-96.98078,13.9,17.3,74,989.45,19.1,53,20.72,0.0,1015.47,90.0
2019-08-13 12:20,50.6304466666667,-96.98078,14.2,16.5,73,989.52,19.1,53,20.73,0.0,1015.55,90.0
2019-08-13 12:30,50.6304466666667,-96.98078,13.8,16.2,72,989.66,19.2,53,20.75,0.0,1015.69,90.0
2019-08-13 12:40,50.6304483333333,-96.9807783333333,13.2,15.8,73,989.78,19.2,53,20.75,0.0,1015.82,90.0
2019-08-13 12:50,50.6304483333333,-96.9807783333333,12.2,14.9,73,989.87,19.1,54,20.74,0.0,1015.92,90.0
2019-08-13 13:00,50.6304483333333,-96.98078,12.3,14.6,69,990.00,19.0,54,20.75,0.0,1016.06,142.0
2019-08-13 13:10,50.6304483333333,-96.9807783333333,11.7,14.2,67,990.11,18.9,54,20.74,0.0,1016.19,142.0
2019-08-13 13:20,50.6304483333333,-96.9807783333333,11.2,13.6,62,990.18,18.9,54,20.73,0.0,1016.27,142.0
2019-08-13 13:30,50.6304483333333,-96.9807766666667,11.2,13.7,64,990.26,18.8,54,20.71,0.0,1016.35,142.0
2019-08-13 13:40,50.6304483333333,-96.9807766666667,11.1,12.9,66,990.37,18.8,53,20.70,0.0,1016.47,142.0
2019-08-13 13:50,50.6304483333333,-96.9807766666667,11.0,12.9,68,990.42,18.8,52,20.70,0.0,1016.52,142.0
2019-08-13 14:00,50.6304483333333,-96.980775,9.8,12.9,73,990.47,18.9,52,20.70,0.0,1016.57,54.7
2019-08-13 14:10,50.6304566666667,-96.980775,10.2,12.6,72,990.46,19.0,51,20.70,0.0,1016.55,54.7
2019-08-13 14:20,50.6304533333333,-96.9807783333333,9.5,11.4,70,990.48,19.1,51,20.70,0.0,1016.57,54.7
2019-08-13 14:30,50.6304566666667,-96.9807783333333,8.9,10.6,65,990.46,18.9,52,20.70,0.0,1016.55,54.7
2019-08-13 14:40,50.63044,-96.9807733333333,8.2,9.9,67,990.54,19.0,52,20.68,0.0,1016.63,54.7
2019-08-13 14:50,50.630455,-96.9807766666667,7.5,9.1,57,990.68,19.0,52,20.67,0.0,1016.79,54.7
2019-08-13 15:00,50.630435,-96.9807816666667,6.7,8.3,49,990.80,18.9,52,20.67,0.0,1016.92,360.0
2019-08-13 15:10,50.6304433333333,-96.9807766666667,5.4,7.1,52,990.90,19.1,52,20.66,0.0,1017.01,360.0
2019-08-13 15:20,50.6304466666667,-96.9807783333333,5.0,7.1,54,990.95,19.3,51,20.65,0.0,1017.06,360.0
2019-08-13 15:30,50.6304483333333,-96.9807766666667,5.3,6.9,38,991.04,19.2,52,20.63,0.0,1017.16,360.0
2019-08-13 15:40,50.6304483333333,-96.9807766666667,5.9,8.9,43,991.10,19.3,51,20.61,0.0,1017.21,360.0
2019-08-13 15:50,50.6304483333333,-96.9807766666667,8.3,10.4,18,991.06,19.1,55,20.62,0.0,1017.18,360.0
2019-08-13 16:00,50.6304466666667,-96.9807766666667,8.6,10.1,27,991.08,19.2,52,20.62,0.0,1017.18,90.0
2019-08-13 16:10,50.6304483333333,-96.9807783333333,9.2,11.8,23,991.09,19.3,55,20.60,0.0,1017.19,90.0
2019-08-13 16:20,50.6304466666667,-96.98077,9.9,11.3,20,991.12,19.3,54,20.60,0.0,1017.23,90.0
2019-08-13 16:30,50.6304383333333,-96.980765,9.6,11.0,17,991.20,19.4,56,20.63,0.0,1017.30,90.0
2019-08-13 16:40,50.6304383333333,-96.980775,10.7,12.9,18,991.19,19.5,54,20.62,0.0,1017.29,90.0
2019-08-13 16:50,50.6304416666667,-96.98078,11.7,13.6,15,991.19,19.5,56,20.60,0.0,1017.29,90.0
2019-08-13 17:00,50.6304416666667,-96.9807816666667,10.9,12.3,13,991.27,19.6,58,20.65,0.0,1017.36,234.7
2019-08-13 17:10,50.6304533333333,-96.980775,12.3,14.9,12,991.25,19.7,57,20.83,0.0,1017.33,234.7
2019-08-13 17:20,50.6304516666667,-96.980815,13.6,16.0,10,991.23,19.8,56,20.88,0.0,1017.30,234.7
2019-08-13 17:30,50.6304516666667,-96.9807983333333,13.8,16.0,9,991.32,19.8,56,20.84,0.0,1017.39,234.7
2019-08-13 17:40,50.6304516666667,-96.9807916666667,12.7,15.2,10,991.40,19.9,55,20.83,0.0,1017.48,234.7
2019-08-13 17:50,50.6304516666667,-96.9807916666667,12.2,14.7,12,991.47,20.1,52,20.82,0.0,1017.53,234.7
2019-08-13 18:00,50.63045,-96.9807883333333,12.8,15.4,15,991.49,20.3,49,20.79,0.0,1017.54,360.0
2019-08-13 18:10,50.6304483333333,-96.98079,12.7,14.9,13,991.51,20.4,49,20.76,0.0,1017.56,360.0
2019-08-13 18:20,50.6304483333333,-96.98079,12.5,14.4,16,991.49,20.4,48,20.77,0.0,1017.53,360.0
2019-08-13 18:30,50.6304466666667,-96.98079,12.2,13.9,19,991.49,20.6,45,20.85,0.0,1017.53,360.0
2019-08-13 18:40,50.6304433333333,-96.98078,11.8,13.3,20,991.42,20.7,43,20.92,0.0,1017.44,360.0
2019-08-13 18:50,50.6304466666667,-96.98078,12.0,13.9,15,991.32,20.9,37,20.95,0.0,1017.33,360.0
2019-08-13 19:00,50.6304516666667,-96.980775,11.1,14.0,11,991.29,20.9,39,20.99,0.0,1017.30,360.0
2019-08-13 19:10,50.63045,-96.98077,11.6,13.5,13,991.36,20.9,39,21.04,0.0,1017.37,360.0
2019-08-13 19:20,50.63046,-96.980795,11.6,13.2,14,991.37,20.9,39,21.02,0.0,1017.37,360.0
2019-08-13 19:30,50.63046,-96.9807916666667,11.0,12.8,19,991.35,20.9,39,20.98,0.0,1017.35,360.0
2019-08-13 19:40,50.6304483333333,-96.98079,10.0,12.2,17,991.42,20.9,39,20.99,0.0,1017.41,360.0
2019-08-13 19:50,50.63045,-96.9807866666667,10.4,12.3,15,991.40,21.0,38,20.95,0.0,1017.37,360.0
2019-08-13 20:00,50.630435,-96.980785,10.0,11.7,18,991.38,21.1,37,20.92,0.0,1017.35,142.0
2019-08-13 20:10,50.6304483333333,-96.98078,9.4,10.8,16,991.37,21.2,35,20.97,0.0,1017.33,142.0
2019-08-13 20:20,50.6304516666667,-96.9807733333333,9.8,11.3,16,991.35,21.3,34,20.97,0.0,1017.30,142.0
2019-08-13 20:30,50.63045,-96.9807766666667,9.4,11.2,13,991.30,21.2,36,20.92,0.0,1017.24,142.0
2019-08-13 20:40,50.63045,-96.9807783333333,9.6,11.3,7,991.23,21.2,37,20.90,0.0,1017.16,142.0
2019-08-13 20:50,50.6304516666667,-96.9807816666667,9.6,11.6,10,991.22,21.3,37,20.92,0.0,1017.15,142.0
2019-08-13 21:00,50.6304516666667,-96.9807816666667,9.5,11.6,8,991.19,21.3,37,20.95,0.0,1017.12,90.0
2019-08-13 21:10,50.6304533333333,-96.9807816666667,9.8,11.3,10,991.16,21.5,38,20.94,0.0,1017.08,90.0
2019-08-13 21:20,50.6304516666667,-96.98078,9.2,10.3,7,991.22,21.5,38,20.92,0.0,1017.14,90.0
2019-08-13 21:30,50.630465,-96.9807733333333,9.4,11.0,8,991.26,21.6,38,20.94,0.0,1017.18,90.0
2019-08-13 21:40,50.6304566666667,-96.9807766666667,8.8,10.7,8,991.24,21.7,40,20.96,0.0,1017.15,90.0
2019-08-13 21:50,50.630495,-96.9808016666667,8.8,11.0,7,991.21,21.8,39,20.99,0.0,1017.12,90.0
2019-08-13 22:00,50.6304583333333,-96.9807866666667,9.1,10.4,6,991.19,21.8,38,21.10,0.0,1017.08,291.5
2019-08-13 22:10,50.630455,-96.9807816666667,8.7,10.7,6,991.21,22.0,37,21.10,0.0,1017.09,291.5
2019-08-13 22:20,50.6304516666667,-96.98078,9.6,11.1,7,991.18,22.0,39,21.12,0.0,1017.07,291.5
2019-08-13 22:30,50.63045,-96.98078,9.4,10.6,8,991.19,22.0,38,21.16,0.0,1017.07,291.5
2019-08-13 22:40,50.6304383333333,-96.9807816666667,9.1,10.5,4,991.16,22.1,40,21.14,0.0,1017.04,291.5
2019-08-13 22:50,50.630455,-96.9807766666667,9.3,10.9,5,991.18,22.1,39,21.11,0.0,1017.05,291.5
2019-08-13 23:00,50.6304566666667,-96.9807766666667,8.6,10.1,5,991.17,22.2,40,21.08,0.0,1017.03,32.5
2019-08-13 23:10,50.6304216666667,-96.9807566666667,8.8,10.4,3,991.13,22.3,39,21.07,0.0,1016.99,32.5
2019-08-13 23:20,50.6304416666667,-96.980775,8.4,10.0,2,991.14,22.4,40,21.10,0.0,1016.98,32.5
2019-08-13 23:30,50.6304483333333,-96.98078,8.7,10.7,2,991.06,22.5,39,21.15,0.0,1016.90,32.5
